Date String (YYYY-MM-DD hh:mm:ss) UTC,Instrument flags,Ambient pressure (hPa),Sample flow (lpm),Bypass flow (lpm),Sample temperature (°C),Ambient temperature (°C),ASC tube jacket temperature (°C),LED temperature (°C),Box temperature (°C),Sample RH (%),Span deviation,Mass concentration (μg/m³),Mass concentration (μg/m³),Mass concentration (μg/m³)
DateTimeUTC,F1_M11,P_M11,Q1_M11,Q2_M11,T1_M11,T2_M11,T3_M11,T4_M11,T5_M11,U1_M11,ZSPAN_M11,X0_M11,X2_M11,X1_M11
2022-02-03 04:00:00,,0829.2,5.01,0.00,22.3,22.7,00.0,31.2,24.1,04.6,0000.0,0005.25,0003.47,0003.26
2022-02-03 04:01:00,,0829.0,4.99,0.00,22.3,22.2,00.0,31.2,24.0,04.6,0000.0,0004.98,0003.44,0003.25
2022-02-03 04:02:00,,0828.8,4.99,0.00,22.2,21.9,00.0,31.2,24.0,04.6,0000.0,0005.09,0003.44,0003.24
2022-02-03 04:03:00,,0829.0,5.01,0.00,22.2,21.6,00.0,31.2,23.9,04.6,0000.0,0005.26,0003.45,0003.24
2022-02-03 04:04:00,,0829.3,5.00,0.00,22.2,21.4,00.0,31.1,23.8,04.6,0000.0,0005.29,0003.45,0003.25
2022-02-03 04:05:00,,0829.3,5.00,0.00,22.1,21.2,00.0,31.1,23.7,04.6,0000.0,0005.42,0003.47,0003.24
2022-02-03 04:06:00,,0829.3,5.01,0.00,22.1,21.0,00.0,31.1,23.6,04.6,0000.0,0005.52,0003.49,0003.25
2022-02-03 04:07:00,,0829.1,4.99,0.00,22.0,20.8,00.0,31.1,23.6,04.6,0000.0,0005.56,0003.51,0003.26
2022-02-03 04:08:00,,0829.2,5.01,0.00,22.0,20.8,00.0,31.1,23.5,04.6,0000.0,0005.63,0003.52,0003.27
2022-02-03 04:09:00,,0828.9,4.99,0.00,22.0,21.6,00.0,31.1,23.7,04.6,0000.0,0005.13,0003.51,0003.26
2022-02-03 04:10:00,,0829.4,5.01,0.00,22.2,22.5,00.0,31.1,24.0,04.6,0000.0,0005.52,0003.47,0003.24
2022-02-03 04:11:00,,0829.1,4.99,0.00,22.3,22.9,00.0,31.1,24.2,04.5,0000.0,0005.45,0003.45,0003.23
2022-02-03 04:12:00,,0828.7,5.01,0.00,22.3,22.6,00.0,31.2,24.2,04.5,0000.0,0005.47,0003.45,0003.22
2022-02-03 04:13:00,,0828.7,5.00,0.00,22.3,22.3,00.0,31.2,24.1,04.5,0000.0,0005.52,0003.45,0003.23
2022-02-03 04:14:00,,0828.7,5.00,0.00,22.3,21.9,00.0,31.2,24.0,04.5,0000.0,0005.39,0003.45,0003.24
2022-02-03 04:15:00,,0828.7,5.01,0.00,22.2,21.6,00.0,31.2,23.9,04.5,0000.0,0005.34,0003.44,0003.23
2022-02-03 04:16:00,,0828.7,4.99,0.00,22.2,21.3,00.0,31.2,23.8,04.5,0000.0,0005.46,0003.46,0003.24
2022-02-03 04:17:00,,0828.7,5.01,0.00,22.1,21.1,00.0,31.1,23.7,04.6,0000.0,0005.38,0003.44,0003.24
2022-02-03 04:18:00,,0828.7,4.99,0.00,22.1,21.0,00.0,31.1,23.6,04.6,0000.0,0005.38,0003.44,0003.24
2022-02-03 04:19:00,,0828.7,4.99,0.00,22.0,20.9,00.0,31.1,23.6,04.6,0000.0,0005.54,0003.46,0003.25
2022-02-03 04:20:00,,0828.7,5.00,0.00,22.1,21.5,00.0,31.1,23.7,04.6,0000.0,0005.59,0003.51,0003.27
2022-02-03 04:21:00,,0828.9,5.00,0.00,22.2,22.4,00.0,31.1,24.0,04.5,0000.0,0005.07,0003.56,0003.29
2022-02-03 04:22:00,,0829.3,5.01,0.00,22.3,23.1,00.0,31.2,24.2,04.5,0000.0,0005.68,0003.58,0003.30
2022-02-03 04:23:00,,0829.3,4.98,0.00,22.4,23.2,00.0,31.2,24.3,04.5,0000.0,0005.76,0003.60,0003.30
2022-02-03 04:24:00,,0829.2,5.00,0.00,22.4,22.7,00.0,31.2,24.3,04.5,0000.0,0005.74,0003.62,0003.31
2022-02-03 04:25:00,,0829.0,5.00,0.00,22.4,22.2,00.0,31.2,24.1,04.5,0000.0,0005.93,0003.67,0003.32
2022-02-03 04:26:00,,0828.7,5.00,0.00,22.3,21.8,00.0,31.2,24.0,04.5,0000.0,0006.10,0003.70,0003.33
2022-02-03 04:27:00,,0828.7,5.00,0.00,22.3,21.5,00.0,31.2,23.9,04.5,0000.0,0006.03,0003.67,0003.33
2022-02-03 04:28:00,,0828.8,4.99,0.00,22.2,21.2,00.0,31.2,23.8,04.5,0000.0,0005.98,0003.67,0003.32
2022-02-03 04:29:00,,0828.7,5.01,0.00,22.1,21.0,00.0,31.2,23.7,04.5,0000.0,0005.95,0003.66,0003.31
2022-02-03 04:30:00,,0828.7,4.99,0.00,22.1,20.8,00.0,31.1,23.6,04.5,0000.0,0005.80,0003.62,0003.29
2022-02-03 04:31:00,,0828.7,5.01,0.00,22.0,20.8,00.0,31.1,23.6,04.5,0000.0,0005.60,0003.57,0003.27
2022-02-03 04:32:00,,0828.7,5.00,0.00,22.0,21.3,00.0,31.1,23.6,04.5,0000.0,0005.56,0003.56,0003.26
2022-02-03 04:33:00,,0829.1,4.99,0.00,22.1,22.2,00.0,31.1,23.9,04.5,0000.0,0005.63,0003.57,0003.27
2022-02-03 04:34:00,,0829.4,5.00,0.00,22.3,22.9,00.0,31.2,24.2,04.5,0000.0,0005.70,0003.59,0003.28
2022-02-03 04:35:00,,0829.1,5.01,0.00,22.4,22.9,00.0,31.2,24.3,04.4,0000.0,0006.13,0003.57,0003.27
2022-02-03 04:36:00,,0828.9,5.00,0.00,22.4,22.4,00.0,31.2,24.2,04.4,0000.0,0006.76,0003.51,0003.26
2022-02-03 04:37:00,,0828.8,4.99,0.00,22.3,22.0,00.0,31.2,24.0,04.4,0000.0,0007.46,0003.48,0003.25
2022-02-03 04:38:00,,0828.8,5.00,0.00,22.3,21.6,00.0,31.2,23.9,04.5,0000.0,0007.39,0003.48,0003.24
2022-02-03 04:39:00,,0828.9,4.99,0.00,22.2,21.3,00.0,31.2,23.8,04.5,0000.0,0007.37,0003.47,0003.24
2022-02-03 04:40:00,,0829.2,5.00,0.00,22.1,21.0,00.0,31.2,23.7,04.5,0000.0,0007.38,0003.49,0003.26
2022-02-03 04:41:00,,0829.3,4.99,0.00,22.1,20.8,00.0,31.2,23.6,04.5,0000.0,0007.58,0003.54,0003.29
2022-02-03 04:42:00,,0829.2,5.01,0.00,22.0,20.8,00.0,31.1,23.5,04.5,0000.0,0007.76,0003.58,0003.32
2022-02-03 04:43:00,,0828.7,4.99,0.00,22.0,21.5,00.0,31.1,23.7,04.5,0000.0,0007.76,0003.59,0003.35
2022-02-03 04:44:00,,0828.9,5.01,0.00,22.2,22.4,00.0,31.2,23.9,04.5,0000.0,0007.41,0003.60,0003.37
2022-02-03 04:45:00,,0828.9,4.99,0.00,22.3,22.9,00.0,31.2,24.2,04.5,0000.0,0007.35,0003.60,0003.41
2022-02-03 04:46:00,,0828.9,5.00,0.00,22.3,22.6,00.0,31.2,24.2,04.4,0000.0,0006.98,0003.62,0003.43
2022-02-03 04:47:00,,0828.8,5.00,0.00,22.3,22.3,00.0,31.2,24.1,04.4,0003.7,0006.36,0003.66,0003.47
2022-02-03 04:48:00,,0828.8,5.00,0.00,22.3,21.9,00.0,31.2,24.0,04.4,0004.1,0005.50,0003.71,0003.50
2022-02-03 04:49:00,,0828.8,5.02,0.00,22.3,21.7,00.0,31.2,23.9,04.5,0003.6,0005.87,0003.76,0003.55
2022-02-03 04:50:00,,0829.3,4.99,0.00,22.2,21.4,00.0,31.2,23.9,04.5,0003.6,0006.35,0003.82,0003.60
2022-02-03 04:51:00,,0829.3,5.01,0.00,22.2,21.2,00.0,31.2,23.8,04.5,0003.6,0006.52,0003.87,0003.62
2022-02-03 04:52:00,,0829.1,4.99,0.00,22.1,21.1,00.0,31.2,23.7,04.5,0004.2,0006.42,0003.90,0003.66
2022-02-03 04:53:00,,0828.7,5.01,0.00,22.1,21.2,00.0,31.1,23.7,04.5,0004.1,0006.37,0003.94,0003.68
2022-02-03 04:54:00,,0828.8,5.00,0.00,22.2,21.9,00.0,31.2,23.9,04.5,0004.4,0006.53,0003.97,0003.69
2022-02-03 04:55:00,,0828.8,4.99,0.00,22.3,22.7,00.0,31.2,24.1,04.4,0004.2,0006.65,0003.99,0003.68
2022-02-03 04:56:00,,0828.8,5.01,0.00,22.4,23.0,00.0,31.2,24.3,04.4,0003.3,0006.79,0004.00,0003.66
2022-02-03 04:57:00,,0829.0,5.01,0.00,22.4,22.6,00.0,31.2,24.3,04.4,0000.0,0006.98,0004.00,0003.64
2022-02-03 04:58:00,,0829.2,4.99,0.00,22.4,22.2,00.0,31.3,24.2,04.4,0000.0,0007.53,0003.97,0003.60
2022-02-03 04:59:00,,0829.2,5.01,0.00,22.3,21.8,00.0,31.2,24.0,04.4,0000.0,0007.46,0003.93,0003.57
